Cloud_Cover
100 100 100 66 2 6 19 0 6 0 0 30 5 7 1 5 94 81 29 22 74 4 5 5 5 4 5 46 12 0 0 5 15 0 3 95 97 56 0 5 13 100 100 98 77 100 100
100 98 27 71 6 14 10 10 8 3 0 8 0 89 0 2 5 100 100 100 100 82 52 36 6 7 5 54 5 3 0 0 0 0 0 69 100 82 3 0 5 46 100 100 58 100 100
71 100 89 100 96 62 85 18 24 4 5 4 5 1 5 4 21 91 100 100 100 100 100 100 100 17 19 76 20 97 8 5 5 0 0 3 85 70 5 0 2 9 100 100 67 75 100
94 84 95 100 100 100 78 0 15 8 14 0 5 3 5 5 8 65 98 100 100 100 100 100 100 99 50 90 98 100 68 11 5 0 0 0 5 5 5 0 0 54 90 100 98 100 86
4 0 1 2 14 84 100 90 14 4 5 18 5 5 4 11 55 86 5 49 59 100 100 100 100 100 90 100 100 100 87 75 5 0 0 0 0 1 0 0 0 5 22 100 100 100 100
0 0 4 3 59 45 100 100 100 15 7 15 5 0 1 5 5 9 92 100 97 99 100 100 100 100 95 100 95 82 92 46 2 0 0 0 0 0 0 0 0 4 70 100 100 100 100
3 1 1 8 77 51 12 8 100 100 13 15 5 5 5 5 5 5 40 64 100 95 85 88 100 100 90 100 96 85 20 5 0 0 0 0 0 0 0 0 0 0 4 19 100 88 99
1 3 0 0 3 88 100 100 100 100 18 6 14 22 100 82 100 42 44 96 100 100 100 100 100 100 100 100 100 40 5 1 0 0 0 0 0 0 0 0 0 0 0 5 36 77 81
5 5 0 0 0 0 86 98 100 100 33 22 8 50 95 100 100 100 90 100 100 100 100 100 100 96 100 100 100 26 4 0 0 0 0 0 0 0 0 0 0 0 0 2 51 70 88
5 3 0 0 0 1 38 54 100 100 12 14 2 16 90 97 100 100 100 100 100 100 100 100 93 99 100 100 56 13 0 0 0 0 0 0 0 0 0 0 0 0 0 0 8 68 79
5 4 0 0 0 0 33 100 100 100 62 0 0 5 5 5 93 100 82 100 100 100 100 100 98 90 69 25 14 5 0 0 0 0 0 0 0 0 0 0 0 0 0 0 4 5 5
5 32 5 13 3 16 21 75 100 100 45 0 0 0 3 5 5 34 100 99 100 100 100 100 100 88 17 5 0 0 0 0 0 0 0 0 0 0 0 0 0 0 0 0 0 0 0
5 6 28 27 13 2 0 30 100 98 35 0 0 0 0 0 2 22 69 100 81 72 100 100 100 100 100 26 0 0 0 0 0 0 0 0 0 0 0 0 0 0 0 1 0 0 1
63 19 70 15 16 23 7 0 28 100 5 0 0 0 0 0 0 24 74 100 100 5 15 99 96 86 100 100 13 0 0 0 0 0 0 0 0 0 0 0 0 0 0 0 0 0 0
79 100 100 96 23 14 26 6 1 6 0 0 0 0 0 0 0 2 51 100 64 100 58 42 20 64 100 92 54 0 0 0 0 0 0 0 0 0 0 0 0 0 0 0 0 0 0
5 79 100 100 100 100 19 7 5 4 0 0 0 0 0 0 0 0 1 24 79 54 100 87 82 78 99 96 100 39 2 0 0 0 0 0 0 0 0 0 0 0 0 0 2 0 0
6 88 100 100 100 100 100 16 5 5 0 3 0 0 0 0 0 0 1 0 4 5 68 88 100 68 70 96 100 100 26 0 0 0 0 0 0 0 0 0 0 0 0 0 0 0 0
82 100 100 100 100 100 100 100 23 35 56 5 3 2 0 0 4 4 0 0 0 0 3 6 72 100 99 62 13 93 100 94 5 4 0 0 0 4 0 0 0 0 0 0 0 3 3
6 5 44 100 100 100 100 100 100 12 23 67 7 5 0 0 0 0 0 2 5 0 0 0 1 1 26 56 66 20 2 5 6 5 5 0 0 0 0 0 0 0 0 0 0 0 0
10 86 17 43 100 100 100 100 100 92 5 58 100 84 3 4 3 0 0 0 0 2 3 0 0 1 0 0 0 4 4 5 2 0 0 0 0 0 0 0 0 0 0 0 0 2 0
70 6 50 66 64 100 98 100 100 100 85 73 100 100 99 14 5 5 5 3 0 0 0 0 0 0 1 0 0 0 1 4 4 0 0 0 0 0 0 0 0 0 0 0 0 0 0
100 8 5 5 71 96 100 100 100 100 100 100 100 100 100 100 97 30 9 5 0 0 0 0 0 0 0 0 0 0 1 0 0 0 2 5 4 2 0 1 1 0 0 0 5 5 5
100 86 28 57 47 98 100 100 100 98 100 100 96 100 100 100 100 100 80 5 8 5 0 0 0 0 0 0 0 0 0 0 0 0 0 0 4 5 5 5 4 8 4 5 5 5 5
100 100 69 54 71 100 100 100 100 100 100 100 100 100 100 100 100 100 100 98 64 5 5 26 1 2 0 0 0 0 0 0 0 0 0 0 0 0 3 1 15 6 5 4 34 43 44
100 100 100 100 84 95 100 100 100 100 100 100 95 100 100 100 100 100 100 100 100 97 98 39 100 56 20 0 2 5 0 1 0 0 0 0 0 0 0 5 1 0 0 1 0 0 0
100 100 100 100 100 100 100 100 100 100 100 100 100 100 100 100 100 100 100 100 100 100 100 100 100 82 97 100 46 9 5 1 6 2 4 2 1 0 5 5 3 1 5 5 0 0 0
100 100 100 100 100 100 100 100 100 100 100 100 97 100 100 100 100 100 100 100 100 98 100 100 75 93 100 74 78 99 100 100 95 34 15 5 5 5 5 22 4 1 1 0 1 2 5
100 80 85 93 46 70 52 24 100 100 100 100 100 100 100 100 100 100 100 100 100 73 85 76 60 37 73 90 39 36 14 89 92 79 51 30 20 44 6 22 14 5 5 4 4 5 4
100 100 99 100 100 100 100 92 93 100 100 100 100 100 98 100 100 100 100 100 100 100 100 100 100 90 53 93 97 12 31 73 64 67 54 12 5 5 44 26 4 2 5 5 36 14 77